Etusivu
METAR-TAF:

METAR-TAF

Lentoasemat :

Maple Lake Municipal Airport

Maple Lake, Minnesota, Yhdysvallat

Leveyspiiri: 45-14-10N, Pituuspiiri: 093-59-08W, korkeus merenpinnasta: 313 m

Tämänhetkinen sää

Tämä raportti tehtiin 17 minuuttia sitten, kello 12.15 UTC
tyyntä
Lämpötila -8°C
Kosteus 100%
Ilmanpaine 1016 hPa
Näkyvyys: 16.1 km

METAR: KMGG 241215Z AUTO 00000KT 10SM M08/M08 A3000 RMK AO2 T10811085

Aika: 06:32 (12:32 UTC)


TAF: puuttuu

Säähavainnot ja -ennusteet yli 4000 lentoasemalta (METAR- ja TAF-raportit).

Käytössä olevat sääasemat on merkitty karttaan keltaisilla ja punaisilla pisteillä.

Aseta hiiri pisteen päälle nähdäksesi sääaseman nimen.

Klikkaa sitten nähdäksesi säähavainnot ja -ennusteet.

Kartan vaihtaminen: klikkaa mustalla rastilla varustettuja vihreitä pisteitä, niin voit zoomata sisään; viivalla varustettua vihreää pistettä, niin voit zoomata ulos tai vihreitä nuolia, niin pääset viereisille kartoille.


METAR-TAF: